This is the latest recevied weather packets stored in our database for station/object KG5RGN-13. If no packets are shown the sender has not sent any weather packets the latest 1 day(s).
| Time | Temp. | Humidity | Pressure | Rain* | Wind** | Luminosity | Snow |
|---|---|---|---|---|---|---|---|
| 1778024559 | 15.56° C | 100% | 0 hPa | 0 mm | 2.68 m/s, 278° | - | - |
| 1778024259 | 15.56° C | 100% | 0 hPa | 0 mm | 4.47 m/s, 233° | - | - |
| 1778023959 | 16.67° C | 100% | 0 hPa | 0 mm | 8.49 m/s, 215° | - | - |
| 1778023659 | 17.22° C | 100% | 0 hPa | 0 mm | 6.26 m/s, 147° | - | - |
| 1778023359 | 17.78° C | 100% | 0 hPa | 0 mm | 5.36 m/s, 192° | - | - |
| 1778023059 | 17.78° C | 100% | 0 hPa | 0 mm | 6.71 m/s, 230° | - | - |
| 1778022759 | 17.22° C | 100% | 0 hPa | 0 mm | 3.58 m/s, 174° | - | - |
| 1778022459 | 17.78° C | 100% | 0 hPa | 0 mm | 5.36 m/s, 206° | - | - |
| 1778022159 | 17.78° C | 100% | 0 hPa | 0 mm | 5.36 m/s, 220° | - | - |
| 1778021859 | 17.22° C | 100% | 0 hPa | 0 mm | 3.13 m/s, 215° | - | - |
| 1778021559 | 17.22° C | 100% | 0 hPa | 0 mm | 5.81 m/s, 215° | - | - |
| 1778021259 | 18.33° C | 100% | 0 hPa | 0 mm | 3.13 m/s, 216° | - | - |
| 1778020959 | 18.89° C | 100% | 0 hPa | 0 mm | 5.81 m/s, 230° | - | - |
| 1778020659 | 18.33° C | 100% | 0 hPa | 0 mm | 2.24 m/s, 199° | - | - |
| 1778020359 | 17.22° C | 100% | 0 hPa | 0 mm | 3.13 m/s, 247° | - | - |
| 1778020059 | 17.78° C | 100% | 0 hPa | 0 mm | 4.02 m/s, 191° | - | - |
| 1778019759 | 17.78° C | 100% | 0 hPa | 0 mm | 1.34 m/s, 217° | - | - |
| 1778019459 | 19.44° C | 100% | 0 hPa | 0 mm | 1.79 m/s, 358° | - | - |
| 1778019159 | 19.44° C | 100% | 0 hPa | 0 mm | 4.47 m/s, 196° | - | - |
| 1778018859 | 20° C | 100% | 0 hPa | 0 mm | 2.24 m/s, 206° | - | - |
| 1778018559 | 20° C | 100% | 0 hPa | 0 mm | 4.02 m/s, 241° | - | - |
| 1778018259 | 20.56° C | 100% | 0 hPa | 0 mm | 7.6 m/s, 358° | - | - |
| 1778017959 | 21.11° C | 100% | 0 hPa | 0 mm | 2.68 m/s, 250° | - | - |
| 1778017659 | 21.11° C | 100% | 0 hPa | 0 mm | 1.34 m/s, 253° | - | - |
| 1778017359 | 21.67° C | 100% | 0 hPa | 0 mm | 4.02 m/s, 292° | - | - |
* Rain latest hour (hover to see other rain measurements)
** Current wind speed in m/s (hover to see current wind gust speed)